{"data":{"norad_id":39485,"intl_designator":"2013-076C","name":"COSMOS 2490 (RODNIK-S 9)","alt_names":[],"object_type":"PAYLOAD","status":"ACTIVE","operator":null,"country":"CIS","launch_date":"2013-12-25","launch_site_code":"PLMSC","launch_vehicle":null,"mission":null,"orbit_class":"UNKNOWN","rcs_meters":1.669,"size_class":null,"mass_kg":null,"dimensions":null,"purposes":[],"wikipedia_slug":null,"has_3d_model":false,"image_url":null,"decayed_at":null,"tle_current":{"epoch":"2026-05-25T04:53:49.152768Z","epoch_age_seconds":53295,"freshness":"FRESH","line1":"1 39485U 13076C   26145.20404112 -.00000016  00000+0 -18942-3 0  9993","line2":"2 39485  82.4828 182.4633 0022072 158.3682 201.8334 12.42877009563023","mean_motion":12.42877009,"eccentricity":0.0022072,"inclination_deg":82.4828,"raan_deg":182.4633,"arg_perigee_deg":158.3682,"mean_anomaly_deg":201.8334,"bstar":-0.00018942,"rev_number":56302,"period_min":115.86021702651,"perigee_km":1477.0543868372,"apogee_km":1511.8070497729,"semimajor_km":7872.567718305,"source":"CELESTRAK","updated_at":"2026-05-25T13:37:55.408177Z"}}}